Location: Newark
(49.1022°N, 20.8503°E)
Time: 08:20:35
(UTC+00:00)

Envisat - Pass Details

Date: 01 October 2020
Orbit: 764 x 766 km, 98.1° (Epoch: 21 October)

Event Time Altitude Azimuth Distance (km) Brightness Sun altitude
Rises 03:05:13 0° 32° (NNE) 3,242 7.0 -15.7°
Reaches altitude 10° 03:09:28 10° 67° (ENE) 2,308 6.8 -15.0°
Maximum altitude 03:10:59 11° 84° (E) 2,220 6.7 -14.8°
Drops below altitude 10° 03:12:30 10° 102° (ESE) 2,303 6.6 -14.5°
Sets 03:16:42 0° 136° (SE) 3,221 6.7 -13.8°
